Date,TemperatureHighF,TemperatureAvgF,TemperatureLowF,DewpointHighF,DewpointAvgF,DewpointLowF,HumidityHigh,HumidityAvg,HumidityLow,PressureMaxIn,PressureMinIn,WindSpeedMaxMPH,WindSpeedAvgMPH,GustSpeedMaxMPH,PrecipitationSumIn
2013-9-1,91.4,78.1,71.1,88.0,77.5,70.8,100,98,88,29.63,29.55,3,0,14,0.27
2013-9-4,81.9,72.5,67.3,76.5,71.5,67.0,100,97,84,29.83,29.74,1,0,3,0.00
2013-9-5,89.4,73.0,61.9,79.8,69.8,61.6,99,91,63,29.87,29.79,4,1,8,0.00
2013-9-6,95.9,73.5,60.4,79.8,70.2,60.2,100,91,57,29.88,29.76,3,0,8,0.00
2013-9-7,92.5,74.4,60.6,82.5,72.1,60.3,100,93,66,29.84,29.70,2,0,8,0.00
2013-9-8,95.2,76.9,64.0,83.0,73.7,63.8,100,91,62,29.74,29.65,2,0,8,0.00
2013-9-9,95.7,78.3,66.9,84.3,75.8,66.6,99,93,67,29.81,29.71,2,0,10,0.00
2013-9-10,97.3,79.5,67.5,82.7,75.8,67.2,100,90,59,29.93,29.81,2,0,7,0.00
2013-9-11,96.6,79.9,69.4,84.6,76.9,69.1,99,92,64,29.94,29.79,2,0,6,0.00
2013-9-12,91.6,76.9,68.9,87.7,76.2,68.6,100,98,79,29.81,29.61,1,0,8,0.11
2013-9-13,84.6,72.4,58.5,76.7,68.0,58.2,100,88,55,29.68,29.57,6,1,13,0.00
2013-9-14,84.6,64.7,50.4,66.9,60.3,50.1,100,88,54,29.77,29.66,5,1,11,0.00
2013-9-15,90.7,69.3,55.0,75.5,65.3,54.8,100,89,60,29.86,29.77,2,0,9,0.00
2013-9-16,91.0,72.3,59.4,77.5,67.7,59.1,100,88,54,29.87,29.78,2,0,9,0.00
2013-9-17,83.1,71.6,62.2,77.1,69.3,62.0,100,93,80,29.91,29.82,3,0,8,0.00
2013-9-18,84.7,72.3,65.5,74.9,68.7,65.2,100,89,73,29.93,29.81,2,0,11,0.00
2013-9-19,91.4,71.8,59.5,79.3,69.2,59.3,99,93,66,29.90,29.75,2,0,6,0.00
2013-9-20,91.6,73.9,60.6,78.0,70.4,60.3,99,90,62,29.78,29.59,2,0,8,0.00
2013-9-21,76.3,69.3,63.1,76.0,69.0,62.9,100,99,99,29.60,29.47,4,0,13,1.61
2013-9-22,81.3,64.7,54.0,69.0,61.9,53.7,100,92,62,29.62,29.53,4,1,17,0.00
2013-9-23,88.0,66.5,53.8,75.3,63.7,53.5,99,92,63,29.72,29.62,3,0,6,0.00
2013-9-24,77.0,66.2,57.2,75.4,65.7,56.9,100,98,91,29.75,29.59,2,0,8,0.01
2013-9-25,72.1,69.9,66.4,71.8,69.6,66.1,99,99,99,29.59,29.53,1,0,5,0.78